Find Es'hailsat-2

NORAD ID: 43700 Int'l Des: 2018-090 Owner: ESHAIL Country: QA operational
HEOCIRCULARGSOGEO

当前视图

正在加载3D地球...

关于 Es'hailsat-2

正在加载描述...

即将过境

Passes for default location (London). Set your location on the main map for personalized predictions.

高度历史

Loading altitude history...

两行轨道根数

1 43700U 18090A 26150.15174416 .00000156 00000-0 00000+0 0 9996
2 43700 0.0174 314.1079 0001762 139.3705 234.6168 1.00270249 27494
Epoch: May 30, 2026 • Age: 9 hours

当前状态

高度 35779.0 km
速度 3.08 km/s
星下点 0.03°N, 25.79°E
发射日期 Nov 15, 2018
运行时间 7.5 years
类型 other

技术详情

分类 Payload
质量 5300.00 kg
干质量 2000.00 kg
总质量 5300.00 kg
长度 6.20 m
直径 3.80 m
跨度 25.30 m
形状 Box + 2 pan
制造商 MELCO
平台类型 DS-2000
阶段状态 In Orbit
所有者/国家 ESHAIL/QA

Most Searched